Stations météo

réclame
Mon MeteoGroup
London/Heathrow Intl, Grande-Bretagne (3772): Température de l'air & dewpoint: 10.08.2018 02:00:00 - 16.08.2018 02:00:00 (BST)London/Heathrow Intl, Grande-Bretagne (3772): Vitesse du vent: 10.08.2018 02:00:00 - 16.08.2018 02:00:00 (BST)London/Heathrow Intl, Grande-Bretagne (3772): Direction du vent: 10.08.2018 02:00:00 - 16.08.2018 02:00:00 (BST)London/Heathrow Intl, Grande-Bretagne (3772): reduced air pressure: 10.08.2018 02:00:00 - 16.08.2018 02:00:00 (BST)London/Heathrow Intl, Grande-Bretagne (3772): visibility: 10.08.2018 02:00:00 - 16.08.2018 02:00:00 (BST)London/Heathrow Intl, Grande-Bretagne (3772): Ensoleillement: 10.08.2018 02:00:00 - 16.08.2018 02:00:00 (BST)London/Heathrow Intl, Grande-Bretagne (3772): Quantités de précipitations: 10.08.2018 02:00:00 - 16.08.2018 02:00:00 (BST)
Date & Time tt [°C] td [°C] ff [km/h] ff [knt] dd ppp [hPa] vv [km] sd [min] rr [mm]
16.08.2018 02:00:00 18,6 15,4 16 9 SSW 1014,4 10 0 0,0
16.08.2018 01:00:00 18,5 15,1 16 9 SSW 1015,1 10 - 0,0
16.08.2018 00:00:00 18,2 14,7 16 9 SSW 1015,5 10 0 0,0
15.08.2018 23:00:00 18,3 14,4 21 11 SW 1015,7 10 0 0,0
15.08.2018 22:00:00 19,5 14,6 21 11 SSW 1016,0 10 0 0,0
15.08.2018 21:00:00 20,1 14,6 22 12 SW 1016,0 10 0 0,0
15.08.2018 20:00:00 20,6 14,5 22 12 SW 1015,8 10 12 0,0
15.08.2018 19:00:00 21,6 14,7 21 11 SW 1015,8 10 0 0,0
15.08.2018 18:00:00 22,5 13,3 24 13 SW 1016,1 10 0 0,0
15.08.2018 17:00:00 23,3 14,5 28 15 SW 1016,4 10 12 0,0
15.08.2018 16:00:00 24,2 14,8 18 10 SSW 1016,6 10 6 0,0
15.08.2018 15:00:00 24,7 14,9 22 12 SW 1017,0 10 24 0,0
15.08.2018 14:00:00 23,9 14,9 26 14 WSW 1017,6 10 0 0,0
15.08.2018 13:00:00 22,5 14,3 24 13 WSW 1017,9 10 0 0,0
15.08.2018 12:00:00 21,9 14,3 22 12 WSW 1018,2 10 12 0,0
15.08.2018 11:00:00 22,6 14,6 26 14 WSW 1018,1 10 6 0,0
15.08.2018 10:00:00 20,7 14,5 18 10 WSW 1018,3 10 30 0,0
15.08.2018 09:00:00 19,5 14,2 16 9 SW 1018,3 10 0 0,0
15.08.2018 08:00:00 18,4 13,4 15 8 WSW 1018,2 10 0 0,0
15.08.2018 07:00:00 17,8 13,2 21 11 W 1018,2 10 0 0,0
15.08.2018 06:00:00 17,7 13,6 18 10 W 1017,8 10 0 0,0
15.08.2018 05:00:00 17,4 13,8 13 7 SW 1017,7 10 0 0,0
15.08.2018 04:00:00 16,8 13,4 11 6 WSW 1017,9 10 0 0,0
15.08.2018 03:00:00 15,8 13,1 13 7 WSW 1018,0 10 0 0,0
15.08.2018 02:00:00 16,1 12,8 13 7 WSW 1018,0 10 0 0,0
15.08.2018 01:00:00 16,4 12,4 11 6 W 1018,4 10 - 0,0
15.08.2018 00:00:00 17,1 12,6 16 9 W 1018,3 10 0 0,0
14.08.2018 23:00:00 18,3 12,5 16 9 W 1018,1 10 0 0,0
14.08.2018 22:00:00 19,1 13,0 21 11 W 1017,9 10 0 0,0
14.08.2018 21:00:00 20,6 12,7 24 13 W 1017,6 10 0 0,0
14.08.2018 20:00:00 22,6 14,2 18 10 W 1016,8 10 18 0,0
14.08.2018 19:00:00 23,2 13,7 24 13 W 1016,4 10 6 0,0
14.08.2018 18:00:00 24,6 13,4 26 14 W 1016,4 10 18 0,0
14.08.2018 17:00:00 25,6 13,3 24 13 W 1016,3 10 12 0,0
14.08.2018 16:00:00 24,9 12,7 18 10 W 1016,4 10 18 0,0
14.08.2018 15:00:00 25,9 11,6 22 12 W 1016,4 10 42 0,0
14.08.2018 14:00:00 24,5 11,5 22 12 W 1016,6 10 42 0,0
14.08.2018 13:00:00 23,3 11,0 16 9 WNW 1016,7 10 18 0,0
14.08.2018 12:00:00 21,9 11,5 15 8 WNW 1016,6 10 24 0,0
14.08.2018 11:00:00 20,9 13,0 15 8 W 1016,4 10 24 0,0
14.08.2018 10:00:00 17,8 13,2 15 8 W 1016,4 10 0 0,0
14.08.2018 09:00:00 17,3 13,0 11 6 WNW 1016,2 10 0 0,0
14.08.2018 08:00:00 15,6 12,7 16 9 W 1015,9 10 0 0,0
14.08.2018 07:00:00 14,6 12,7 13 7 W 1015,7 10 0 0,0
14.08.2018 06:00:00 13,6 11,8 11 6 W 1014,9 10 0 0,0
14.08.2018 05:00:00 14,3 12,8 11 6 W 1014,3 10 0 0,0
14.08.2018 04:00:00 15,4 12,3 8 4 WNW 1014,0 10 0 0,0
14.08.2018 03:00:00 15,3 12,8 5 3 - 1013,6 10 0 0,0
14.08.2018 02:00:00 16,5 13,0 8 4 WNW 1013,3 10 0 0,0
14.08.2018 01:00:00 17,6 12,7 5 3 WNW 1012,6 10 - 0,0
14.08.2018 00:00:00 18,0 13,3 8 4 WNW 1012,0 10 0 0,0
13.08.2018 23:00:00 18,8 13,2 9 5 NW 1011,5 10 0 0,0
13.08.2018 22:00:00 20,2 13,9 11 6 NW 1010,8 10 0 0,0
13.08.2018 21:00:00 21,6 14,3 13 7 NW 1009,9 10 0 0,0
13.08.2018 20:00:00 22,9 13,1 13 7 WNW 1008,9 10 6 0,0
13.08.2018 19:00:00 24,1 12,6 13 7 NW 1008,1 10 30 0,0
13.08.2018 18:00:00 23,5 12,2 18 10 WNW 1007,8 10 18 0,0
13.08.2018 17:00:00 24,0 12,3 18 10 WNW 1007,5 10 18 0,0
13.08.2018 16:00:00 22,9 13,3 13 7 NW 1007,2 10 0 0,0
13.08.2018 15:00:00 24,4 13,5 18 10 WNW 1007,1 10 30 0,0
13.08.2018 14:00:00 21,6 13,0 29 16 W 1007,2 10 12 0,0
13.08.2018 13:00:00 22,2 14,0 13 7 WNW 1006,9 10 12 0,0
13.08.2018 12:00:00 20,4 15,7 11 6 NW 1007,0 10 0 0,0
13.08.2018 11:00:00 19,9 15,5 15 8 WNW 1006,7 10 6 0,0
13.08.2018 10:00:00 18,1 15,6 15 8 WNW 1006,4 10 0 0,0
13.08.2018 09:00:00 17,0 15,5 16 9 W 1006,2 9 0 0,0
13.08.2018 08:00:00 16,7 15,1 16 9 W 1006,0 10 0 0,0
13.08.2018 07:00:00 16,2 15,1 11 6 WSW 1005,8 9 0 0,0
13.08.2018 06:00:00 15,6 15,1 8 4 WSW 1005,3 7 0 0,0
13.08.2018 05:00:00 15,3 15,0 4 2 SSW 1005,2 4,4 0 0,0
13.08.2018 04:00:00 15,6 15,0 8 4 SSW 1005,4 6 0 0,0
13.08.2018 03:00:00 16,0 15,3 5 3 WSW 1005,6 10 0 0,2
13.08.2018 02:00:00 16,1 15,5 5 3 SW 1006,1 10 0 0,0
13.08.2018 01:00:00 15,8 15,1 4 2 - 1006,5 10 - 0,0
13.08.2018 00:00:00 15,7 14,8 8 4 SSE 1006,8 10 0 0,0
12.08.2018 23:00:00 16,0 14,8 8 4 S 1006,9 10 0 1,4
12.08.2018 22:00:00 16,5 14,0 15 8 SSW 1007,4 10 0 0,0
12.08.2018 21:00:00 17,6 12,9 16 9 SSW 1007,3 10 0 0,0
12.08.2018 20:00:00 19,1 12,8 15 8 S 1007,5 10 0 0,0
12.08.2018 19:00:00 19,2 13,3 18 10 SSW 1007,8 10 0 0,0
12.08.2018 18:00:00 19,4 13,6 15 8 SW 1008,3 10 0 0,0
12.08.2018 17:00:00 19,2 12,2 22 12 S 1008,7 10 0 0,0
12.08.2018 16:00:00 18,9 13,9 18 10 S 1009,4 10 0 0,0
12.08.2018 15:00:00 18,6 13,6 22 12 SSW 1009,9 10 0 0,0
12.08.2018 14:00:00 19,3 13,3 24 13 SSW 1010,2 10 0 0,0
12.08.2018 13:00:00 19,7 13,8 24 13 SSW 1010,5 10 0 0,0
12.08.2018 12:00:00 22,2 12,1 26 14 S 1010,5 10 0 0,0
12.08.2018 11:00:00 21,0 12,1 18 10 S 1010,8 10 0 0,0
12.08.2018 10:00:00 20,0 15,4 15 8 S 1011,2 10 0 0,0
12.08.2018 09:00:00 18,7 15,4 15 8 S 1011,6 10 0 0,0
12.08.2018 08:00:00 18,2 15,4 15 8 SSW 1012,1 10 0 0,0
12.08.2018 07:00:00 17,8 15,8 9 5 S 1012,4 10 0 0,0
12.08.2018 06:00:00 16,9 15,0 8 4 S 1012,6 10 0 0,0
12.08.2018 05:00:00 16,8 14,9 8 4 S 1013,1 10 0 0,0
12.08.2018 04:00:00 16,5 14,8 5 3 S 1014,0 10 0 0,0
12.08.2018 03:00:00 16,5 14,9 8 4 S 1015,1 10 0 0,0
12.08.2018 02:00:00 16,5 14,9 9 5 S 1015,7 10 0 0,0
12.08.2018 01:00:00 16,7 15,0 9 5 S 1016,5 10 - 0,0
12.08.2018 00:00:00 16,7 14,8 11 6 S 1017,1 10 0 0,0
11.08.2018 23:00:00 17,3 15,2 13 7 S 1017,9 10 0 0,0
11.08.2018 22:00:00 17,0 15,0 13 7 S 1018,4 10 0 0,0
11.08.2018 21:00:00 17,1 15,5 13 7 S 1019,0 10 0 0,0
11.08.2018 20:00:00 16,8 15,6 15 8 SW 1019,5 10 0 0,6
11.08.2018 19:00:00 18,1 15,1 18 10 S 1019,8 10 0 0,0
11.08.2018 18:00:00 19,2 13,8 21 11 SSW 1020,4 10 0 0,0
11.08.2018 17:00:00 19,8 13,1 18 10 SSW 1020,6 10 0 0,0
11.08.2018 16:00:00 19,9 11,4 21 11 SSW 1021,2 10 0 0,0
11.08.2018 15:00:00 20,2 9,7 21 11 SSW 1021,8 10 0 0,0
11.08.2018 14:00:00 20,9 6,7 16 9 SSW 1022,1 10 18 0,0
11.08.2018 13:00:00 21,1 7,5 11 6 SSW 1022,3 10 54 0,0
11.08.2018 12:00:00 20,4 8,1 15 8 S 1022,8 10 60 0,0
11.08.2018 11:00:00 19,0 8,5 11 6 SSW 1023,1 10 60 0,0
11.08.2018 10:00:00 17,1 8,4 5 3 - 1023,4 10 60 0,0
11.08.2018 09:00:00 15,6 9,4 5 3 - 1023,7 10 60 0,0
11.08.2018 08:00:00 12,9 8,6 5 3 - 1023,6 10 60 0,0
11.08.2018 07:00:00 11,4 8,1 8 4 W 1023,5 10 30 0,0
11.08.2018 06:00:00 10,2 8,0 8 4 W 1023,2 10 0 0,0
11.08.2018 05:00:00 10,4 8,2 2 1 - 1022,6 10 0 0,0
11.08.2018 04:00:00 9,9 7,7 9 5 W 1022,5 10 0 0,0
11.08.2018 03:00:00 11,2 7,9 8 4 WNW 1022,4 10 0 0,0
11.08.2018 02:00:00 11,5 7,2 9 5 W 1022,2 10 0 0,0
11.08.2018 01:00:00 13,3 7,9 9 5 W 1021,9 10 - 0,0
11.08.2018 00:00:00 14,0 7,2 13 7 W 1021,7 10 0 0,0
10.08.2018 23:00:00 15,1 7,8 13 7 W 1021,2 10 0 0,0
10.08.2018 22:00:00 15,9 8,0 8 4 WNW 1020,4 10 0 0,0
10.08.2018 21:00:00 16,3 7,8 11 6 W 1019,4 10 0 0,0
10.08.2018 20:00:00 16,8 7,6 13 7 NW 1018,6 10 12 0,0
10.08.2018 19:00:00 17,5 9,1 15 8 N 1017,6 10 36 0,0
10.08.2018 18:00:00 20,0 9,0 21 11 W 1016,7 10 18 0,0
10.08.2018 17:00:00 19,1 12,4 18 10 WSW 1016,5 10 18 0,0
10.08.2018 16:00:00 18,5 13,8 9 5 - 1016,3 10 24 0,0
10.08.2018 15:00:00 17,2 15,0 18 10 WSW 1016,4 10 6 1,4
10.08.2018 14:00:00 15,9 13,3 13 7 NW 1015,8 10 6 0,4
10.08.2018 13:00:00 17,9 13,9 26 14 S 1015,8 10 0 0,0
10.08.2018 12:00:00 16,5 13,6 21 11 SSW 1017,2 10 0 0,6
10.08.2018 11:00:00 18,5 8,5 24 13 SW 1017,4 10 18 0,0
10.08.2018 10:00:00 18,4 10,8 22 12 SW 1018,0 10 54 0,0
10.08.2018 09:00:00 16,2 11,4 15 8 SW 1018,5 10 54 0,0
10.08.2018 08:00:00 13,9 10,5 16 9 WSW 1018,4 10 54 0,0
10.08.2018 07:00:00 11,8 9,3 11 6 SSW 1018,2 10 6 0,0
10.08.2018 06:00:00 11,0 9,1 9 5 SSW 1018,0 10 0 0,0
10.08.2018 05:00:00 11,5 9,1 11 6 SSW 1017,9 10 0 0,0
10.08.2018 04:00:00 11,8 9,4 11 6 SW 1017,8 10 0 0,0
10.08.2018 03:00:00 11,4 9,5 5 3 SW 1017,8 10 0 0,0
10.08.2018 02:00:00 12,0 9,8 11 6 WSW 1017,6 10 0 0,0

tt = Température de l'air
td = dewpoint
ff = Vitesse du vent
dd = Direction du vent
ppp = reduced air pressure
vv = visibility
sd = Ensoleillement
rr = Quantités de précipitations

stations d'obs. à proximité